This demonstration page uses our WeatherBlox Daily Observations layout. Learn more.

Hourly Observations for August 6, 2015

Temp ( °F °C ) Dew Point ( °F °C ) Humidity (%) Winds ( mph kmh ) Pressure ( in mb ) Visibility ( mi km ) Precip ( " mm )
12:15 am 00:15 Clear 68 20 64 18 88 88 SSE 5 7 29.85 1011 10 16.09344 0 0
12:35 am 00:35 Clear 68 20 64 18 88 88 SSE 5 7 29.88 1012 7 11.265408 0 0
12:55 am 00:55 Clear 68 20 64 18 88 88 SSE 5 7 29.88 1012 7 11.265408 0 0
1:15 am 01:15 Clear 68 20 64 18 88 88 SSE 6 9 29.88 1012 7 11.265408 0 0
1:35 am 01:35 Clear 66 19 64 18 94 94 SSE 6 9 29.91 1013 7 11.265408 0 0
1:55 am 01:55 Clear with Mist and Fog 66 19 64 18 94 94 SSE 6 9 29.85 1011 5 8.04672 0 0
2:15 am 02:15 Clear with Mist and Fog 66 19 64 18 94 94 SSE 8 13 29.85 1011 5 8.04672 0 0
2:35 am 02:35 Clear 68 20 64 18 88 88 SSE 9 15 29.83 1010 7 11.265408 0 0
2:55 am 02:55 Clear 68 20 64 18 88 88 S 9 15 29.83 1010 7 11.265408 0 0
3:15 am 03:15 Clear 68 20 64 18 88 88 SSE 9 15 29.83 1010 7 11.265408 0 0
3:35 am 03:35 Clear with Mist and Fog 68 20 64 18 88 88 SSE 7 11 29.85 1011 5 8.04672 0 0
3:55 am 03:55 Clear with Mist and Fog 66 19 64 18 94 94 SE 6 9 29.85 1011 5 8.04672 0 0
4:15 am 04:15 Clear with Mist and Fog 66 19 64 18 94 94 ESE 7 11 29.85 1011 4 6.437376 0 0
4:35 am 04:35 Partly Cloudy with Mist and Fog 66 19 64 18 94 94 SE 9 15 29.83 1010 3 4.828032 0 0
4:55 am 04:55 Cloudy with Mist and Fog 66 19 66 19 100 100 SSE 8 13 29.83 1010 3 4.828032 0 0
5:15 am 05:15 Cloudy with Mist and Fog 66 19 66 19 100 100 SSE 9 15 29.83 1010 2.5 4.02336 0 0
5:35 am 05:35 Cloudy with Mist and Fog 68 20 66 19 94 94 ESE 10 17 29.83 1010 3 4.828032 0 0
5:55 am 05:55 Cloudy with Mist and Fog 68 20 66 19 94 94 SSE 9 15 29.83 1010 4 6.437376 0 0
6:15 am 06:15 Cloudy with Mist and Fog 66 19 64 18 94 94 SE 9 15 29.85 1011 4 6.437376 0 0
6:35 am 06:35 Cloudy with Mist and Fog 68 20 66 19 94 94 ESE 8 13 29.85 1011 4 6.437376 0 0
6:55 am 06:55 Cloudy with Light Rain 68 20 66 19 94 94 ESE 13 20 29.83 1010 3 4.828032 0 0
7:15 am 07:15 Cloudy with Mist and Fog 68 20 66 19 94 94 ESE 9 15 29.85 1011 3 4.828032 0 0
7:35 am 07:35 Cloudy with Mist and Fog 68 20 66 19 94 94 SE 8 13 29.88 1012 2.5 4.02336 0 0
7:55 am 07:55 Cloudy with Thunderstorms 68 20 66 19 94 94 Calm 29.94 1014 4 6.437376 0 0
8:15 am 08:15 Mostly Cloudy 68 20 66 19 94 94 SE 7 11 29.88 1012 2.5 4.02336 0.04 1.016
8:35 am 08:35 Sunny with Mist and Fog 68 20 66 19 94 94 SSE 8 13 29.88 1012 2.5 4.02336 0.04 1.016
8:55 am 08:55 Partly Cloudy with Mist and Fog 68 20 66 19 94 94 SSE 8 13 29.88 1012 2.5 4.02336 0.04 1.016
9:15 am 09:15 Cloudy with Mist and Fog 68 20 66 19 94 94 SSE 14 22 29.88 1012 3 4.828032 0 0
9:35 am 09:35 Cloudy with Mist and Fog 68 20 66 19 94 94 SSE 12 19 29.85 1011 4 6.437376 0 0
9:55 am 09:55 Cloudy with Mist and Fog 68 20 66 19 94 94 SSE 15 24 29.85 1011 5 8.04672 0 0
10:15 am 10:15 Mostly Cloudy 68 20 64 18 88 88 SSE 15 24 29.85 1011 7 11.265408 0 0
10:35 am 10:35 Partly Cloudy with Mist and Fog 68 20 64 18 88 88 SE 14 22 29.83 1010 5 8.04672 0 0
10:55 am 10:55 Mostly Cloudy with Mist and Fog 68 20 64 18 88 88 SSE 12 19 29.83 1010 5 8.04672 0 0
11:15 am 11:15 Partly Cloudy 68 20 64 18 88 88 SE 14 22 29.85 1011 7 11.265408 0 0
11:35 am 11:35 Mostly Cloudy with Thunderstorms 68 20 64 18 88 88 N 16 26 29.94 1014 7 11.265408 0 0
11:55 am 11:55 Cloudy 70 21 63 17 78 78 NE 10 17 29.91 1013 10 16.09344 0 0
12:15 pm 12:15 Mostly Cloudy with Nearby Thunderstorms 70 21 64 18 83 83 E 8 13 29.88 1012 10 16.09344 0 0
12:35 pm 12:35 Mostly Cloudy with Nearby Thunderstorms 70 21 64 18 83 83 E 13 20 29.91 1013 10 16.09344 0 0
12:55 pm 12:55 Cloudy with Nearby Thunderstorms 70 21 64 18 83 83 ENE 5 7 29.91 1013 10 16.09344 0 0
1:15 pm 13:15 Mostly Cloudy with Nearby Thunderstorms 72 22 64 18 78 78 ESE 15 24 29.88 1012 10 16.09344 0 0
1:35 pm 13:35 Partly Cloudy 73 23 64 18 74 74 SE 20 31 29.83 1010 10 16.09344 0 0
1:55 pm 13:55 Sunny 75 24 64 18 69 69 SSE 16 26 29.83 1010 10 16.09344 0 0
2:15 pm 14:15 Sunny 75 24 64 18 69 69 SSE 17 28 29.83 1010 10 16.09344 0 0
2:35 pm 14:35 Sunny 75 24 64 18 69 69 S 15 24 29.8 1009 10 16.09344 0 0
2:55 pm 14:55 Sunny 77 25 64 18 65 65 S 15 24 29.8 1009 10 16.09344 0 0
3:15 pm 15:15 Sunny 75 24 64 18 69 69 S 13 20 29.8 1009 10 16.09344 0 0
3:35 pm 15:35 Sunny 77 25 64 18 65 65 SSW 14 22 29.8 1009 10 16.09344 0 0
3:55 pm 15:55 Sunny 77 25 66 19 69 69 S 15 24 29.77 1008 10 16.09344 0 0
4:15 pm 16:15 Sunny 79 26 66 19 65 65 SSW 13 20 29.74 1007 10 16.09344 0 0
4:35 pm 16:35 Sunny 81 27 66 19 62 62 SW 13 20 29.74 1007 10 16.09344 0 0
4:55 pm 16:55 Sunny 81 27 68 20 66 66 SW 12 19 29.74 1007 10 16.09344 0 0
5:15 pm 17:15 Partly Cloudy 81 27 68 20 66 66 WSW 13 20 29.74 1007 10 16.09344 0 0
5:35 pm 17:35 Partly Cloudy 79 26 68 20 70 70 WSW 9 15 29.74 1007 10 16.09344 0 0
5:55 pm 17:55 Mostly Cloudy 79 26 68 20 70 70 W 10 17 29.77 1008 10 16.09344 0 0
6:15 pm 18:15 Cloudy 77 25 68 20 74 74 W 9 15 29.77 1008 10 16.09344 0 0
6:35 pm 18:35 Cloudy 79 26 68 20 70 70 W 7 11 29.74 1007 10 16.09344 0 0
6:55 pm 18:55 Cloudy 77 25 68 20 74 74 W 8 13 29.77 1008 10 16.09344 0 0
7:15 pm 19:15 Partly Cloudy 77 25 68 20 74 74 WSW 6 9 29.77 1008 10 16.09344 0 0
7:35 pm 19:35 Sunny 75 24 68 20 78 78 WSW 6 9 29.77 1008 10 16.09344 0 0
7:55 pm 19:55 Sunny 75 24 68 20 78 78 W 8 13 29.77 1008 10 16.09344 0 0
8:15 pm 20:15 Sunny 73 23 68 20 83 83 W 6 9 29.77 1008 10 16.09344 0 0
8:35 pm 20:35 Sunny 73 23 68 20 83 83 W 6 9 29.77 1008 10 16.09344 0 0
8:55 pm 20:55 Clear 72 22 68 20 88 88 W 3 6 29.83 1010 10 16.09344 0 0
9:15 pm 21:15 Clear 72 22 68 20 88 88 WSW 3 6 29.83 1010 10 16.09344 0 0
9:35 pm 21:35 Clear 72 22 68 20 88 88 Calm 29.83 1010 10 16.09344 0 0
9:55 pm 21:55 Clear 72 22 68 20 88 88 Calm 29.83 1010 10 16.09344 0 0
10:15 pm 22:15 Clear 68 20 66 19 94 94 Calm 29.83 1010 7 11.265408 0 0
10:35 pm 22:35 Clear 70 21 66 19 88 88 SSW 3 6 29.83 1010 7 11.265408 0 0
10:55 pm 22:55 Clear 68 20 66 19 94 94 Calm 29.83 1010 7 11.265408 0 0
11:15 pm 23:15 Clear 68 20 66 19 94 94 Calm 29.83 1010 7 11.265408 0 0
11:35 pm 23:35 Clear 66 19 64 18 94 94 Calm 29.83 1010 10 16.09344 0 0
11:55 pm 23:55 Clear 66 19 64 18 94 94 Calm 29.83 1010 7 11.265408 0 0

Powered by AerisWeather